| time (UTC) | temp C | wind direction | speed KPH | gust KPH | rain 1hr cm | rain 24hr cm | rain mn cm | humidity % | barometer mb |
| 20260507212604 | 10 | 188 | 11.3 | 20.9 | 0.00 | 0.00 | 0.00 | 77 | 1013.2 |
| 20260507212103 | 10 | 184 | 11.3 | 19.3 | 0.00 | 0.00 | 0.00 | 77 | 1013.2 |
| 20260507211604 | 10 | 182 | 11.3 | 22.5 | 0.00 | 0.00 | 0.00 | 76 | 1013.2 |
| 20260507211104 | 10 | 183 | 9.7 | 19.3 | 0.00 | 0.00 | 0.00 | 76 | 1013.2 |
| 20260507210604 | 10 | 183 | 9.7 | 14.5 | 0.00 | 0.00 | 0.00 | 76 | 1013.2 |
| 20260507210104 | 10 | 185 | 11.3 | 19.3 | 0.00 | 0.00 | 0.00 | 76 | 1013.2 |
| 20260507205604 | 10 | 185 | 11.3 | 16.1 | 0.00 | 0.00 | 0.00 | 76 | 1013.2 |
| 20260507204104 | 10 | 184 | 9.7 | 22.5 | 0.00 | 0.00 | 0.00 | 74 | 1013.2 |
| 20260507203104 | 10 | 196 | 11.3 | 20.9 | 0.00 | 0.00 | 0.00 | 74 | 1013.2 |
| 20260507202604 | 10 | 189 | 12.9 | 19.3 | 0.00 | 0.00 | 0.00 | 74 | 1013.2 |
| 20260507202104 | 10 | 188 | 12.9 | 19.3 | 0.00 | 0.00 | 0.00 | 73 | 1013.2 |
| 20260507201604 | 10 | 190 | 14.5 | 20.9 | 0.00 | 0.00 | 0.00 | 73 | 1013.2 |
| 20260507201103 | 10 | 185 | 11.3 | 19.3 | 0.00 | 0.00 | 0.00 | 73 | 1013.2 |
| 20260507200104 | 10 | 194 | 16.1 | 22.5 | 0.00 | 0.00 | 0.00 | 73 | 1013.2 |
| 20260507194604 | 10 | 191 | 11.3 | 19.3 | 0.00 | 0.00 | 0.00 | 72 | 1013.2 |
| 20260507194104 | 10 | 188 | 9.7 | 14.5 | 0.00 | 0.00 | 0.00 | 71 | 1013.2 |
| 20260507193604 | 10 | 178 | 9.7 | 12.9 | 0.00 | 0.00 | 0.00 | 71 | 1013.2 |
| 20260507193104 | 11 | 167 | 9.7 | 19.3 | 0.00 | 0.00 | 0.00 | 70 | 1013.2 |
| 20260507192604 | 11 | 187 | 11.3 | 16.1 | 0.00 | 0.00 | 0.00 | 70 | 1013.2 |
| 20260507192104 | 11 | 173 | 9.7 | 16.1 | 0.00 | 0.00 | 0.00 | 71 | 1013.2 |
| 20260507191604 | 11 | 188 | 11.3 | 14.5 | 0.00 | 0.00 | 0.00 | 71 | 1013.2 |
| 20260507191104 | 11 | 176 | 9.7 | 12.9 | 0.00 | 0.00 | 0.00 | 72 | 1013.2 |
| 20260507190603 | 11 | 175 | 9.7 | 16.1 | 0.00 | 0.00 | 0.00 | 72 | 1013.2 |
| 20260507190104 | 11 | 178 | 9.7 | 16.1 | 0.00 | 0.00 | 0.00 | 73 | 1013.2 |
| 20260507185604 | 11 | 189 | 8.0 | 19.3 | 0.00 | 0.00 | 0.00 | 73 | 1013.2 |
| 20260507185104 | 11 | 165 | 8.0 | 16.1 | 0.00 | 0.00 | 0.00 | 74 | 1013.2 |
| 20260507184604 | 11 | 175 | 9.7 | 14.5 | 0.00 | 0.00 | 0.00 | 74 | 1013.2 |
| 20260507184104 | 11 | 175 | 9.7 | 16.1 | 0.00 | 0.00 | 0.00 | 74 | 1013.2 |
| 20260507183604 | 11 | 174 | 9.7 | 24.1 | 0.00 | 0.00 | 0.00 | 74 | 1013.2 |
| 20260507182604 | 11 | 163 | 9.7 | 16.1 | 0.00 | 0.00 | 0.00 | 72 | 1013.2 |
| 20260507182103 | 11 | 167 | 9.7 | 19.3 | 0.00 | 0.00 | 0.00 | 73 | 1013.2 |
| 20260507181603 | 11 | 168 | 8.0 | 16.1 | 0.00 | 0.00 | 0.00 | 73 | 1013.2 |
| 20260507181104 | 11 | 166 | 11.3 | 16.1 | 0.00 | 0.00 | 0.00 | 73 | 1013.2 |
| 20260507180604 | 11 | 198 | 8.0 | 19.3 | 0.00 | 0.00 | 0.00 | 72 | 1013.2 |
| 20260507175603 | 11 | 184 | 11.3 | 19.3 | 0.00 | 0.00 | 0.00 | 72 | 1013.2 |
| 20260507175104 | 11 | 181 | 11.3 | 20.9 | 0.00 | 0.00 | 0.00 | 72 | 1013.2 |
| 20260507174604 | 11 | 178 | 9.7 | 22.5 | 0.00 | 0.00 | 0.00 | 72 | 1013.2 |
| 20260507174104 | 11 | 193 | 8.0 | 19.3 | 0.00 | 0.00 | 0.00 | 74 | 1013.2 |
| 20260507173604 | 11 | 182 | 9.7 | 19.3 | 0.00 | 0.00 | 0.00 | 74 | 1013.2 |
| 20260507173104 | 12 | 198 | 8.0 | 11.3 | 0.00 | 0.00 | 0.00 | 75 | 1013.2 |
| 20260507172604 | 12 | 184 | 4.8 | 11.3 | 0.00 | 0.00 | 0.00 | 74 | 1013.2 |
| 20260507172104 | 12 | 186 | 6.4 | 12.9 | 0.00 | 0.00 | 0.00 | 74 | 1013.2 |
| 20260507170104 | 12 | 201 | 9.7 | 16.1 | 0.00 | 0.00 | 0.00 | 74 | 1013.2 |
| 20260507165604 | 12 | 225 | 9.7 | 20.9 | 0.00 | 0.00 | 0.00 | 74 | 1013.2 |
| 20260507165104 | 12 | 220 | 9.7 | 19.3 | 0.00 | 0.00 | 0.00 | 75 | 1013.2 |
| 20260507164604 | 11 | 202 | 11.3 | 19.3 | 0.00 | 0.00 | 0.00 | 75 | 1013.2 |
| 20260507164104 | 11 | 189 | 14.5 | 22.5 | 0.00 | 0.00 | 0.00 | 75 | 1013.2 |
| 20260507163604 | 11 | 182 | 6.4 | 16.1 | 0.00 | 0.00 | 0.00 | 75 | 1013.2 |
| 20260507163104 | 11 | 173 | 9.7 | 19.3 | 0.00 | 0.00 | 0.00 | 75 | 1013.2 |
| 20260507162103 | 11 | 183 | 11.3 | 19.3 | 0.00 | 0.00 | 0.00 | 75 | 1013.2 |
| 20260507161103 | 11 | 187 | 14.5 | 20.9 | 0.00 | 0.00 | 0.00 | 73 | 1013.2 |
| 20260507160604 | 12 | 189 | 12.9 | 20.9 | 0.00 | 0.00 | 0.00 | 72 | 1013.2 |
| 20260507160104 | 12 | 185 | 11.3 | 25.7 | 0.00 | 0.00 | 0.00 | 70 | 1013.2 |
| 20260507155603 | 12 | 190 | 9.7 | 19.3 | 0.00 | 0.00 | 0.00 | 69 | 1013.2 |
| 20260507155104 | 12 | 186 | 12.9 | 20.9 | 0.00 | 0.00 | 0.00 | 69 | 1013.2 |
| 20260507154604 | 12 | 199 | 6.4 | 19.3 | 0.00 | 0.00 | 0.00 | 70 | 1013.2 |
| 20260507154103 | 12 | 212 | 8.0 | 9.7 | 0.00 | 0.00 | 0.00 | 70 | 1013.2 |
| 20260507153604 | 12 | 196 | 3.2 | 12.9 | 0.00 | 0.00 | 0.00 | 70 | 1013.2 |
| 20260507153104 | 12 | 178 | 4.8 | 8.0 | 0.00 | 0.00 | 0.00 | 71 | 1013.2 |
| 20260507152603 | 12 | 168 | 4.8 | 11.3 | 0.00 | 0.00 | 0.00 | 70 | 1013.2 |
| 20260507152104 | 12 | 191 | 3.2 | 4.8 | 0.00 | 0.00 | 0.00 | 71 | 1013.2 |
| 20260507151604 | 12 | 191 | 1.6 | 4.8 | 0.00 | 0.00 | 0.00 | 71 | 1013.2 |
| 20260507151104 | 12 | 192 | 4.8 | 9.7 | 0.00 | 0.00 | 0.00 | 71 | 1013.2 |
| 20260507150604 | 12 | 193 | 1.6 | 4.8 | 0.00 | 0.00 | 0.00 | 72 | 1013.2 |
| 20260507150104 | 12 | 193 | 4.8 | 11.3 | 0.00 | 0.00 | 0.00 | 72 | 1013.2 |
| 20260507145603 | 12 | 133 | 4.8 | 8.0 | 0.00 | 0.00 | 0.00 | 73 | 1013.2 |
| 20260507144604 | 11 | 61 | 1.6 | 3.2 | 0.00 | 0.00 | 0.00 | 74 | 1013.2 |
| 20260507143604 | 11 | 61 | 0.0 | 3.2 | 0.00 | 0.00 | 0.00 | 76 | 1013.2 |
| 20260507142604 | 11 | 61 | 1.6 | 4.8 | 0.00 | 0.00 | 0.00 | 75 | 1013.2 |
| 20260507142104 | 11 | 61 | 4.8 | 4.8 | 0.00 | 0.00 | 0.00 | 74 | 1013.2 |
| 20260507141604 | 11 | 61 | 1.6 | 4.8 | 0.00 | 0.00 | 0.00 | 73 | 1013.2 |
| 20260507141104 | 11 | 61 | 1.6 | 4.8 | 0.00 | 0.00 | 0.00 | 72 | 1013.2 |
| 20260507140604 | 11 | 61 | 3.2 | 8.0 | 0.00 | 0.00 | 0.00 | 71 | 1013.2 |
| 20260507140104 | 11 | 51 | 3.2 | 8.0 | 0.00 | 0.00 | 0.00 | 70 | 1013.2 |
| 20260507135604 | 11 | 21 | 4.8 | 9.7 | 0.00 | 0.00 | 0.00 | 73 | 1013.2 |
| 20260507135104 | 11 | 14 | 6.4 | 8.0 | 0.00 | 0.00 | 0.00 | 72 | 1013.2 |
| 20260507134604 | 11 | 4 | 0.0 | 4.8 | 0.00 | 0.00 | 0.00 | 71 | 1013.2 |
| 20260507134104 | 11 | 4 | 1.6 | 4.8 | 0.00 | 0.00 | 0.00 | 70 | 1013.2 |
| 20260507133604 | 11 | 4 | 4.8 | 9.7 | 0.00 | 0.00 | 0.00 | 70 | 1013.2 |
| 20260507133104 | 11 | 4 | 6.4 | 9.7 | 0.00 | 0.00 | 0.00 | 70 | 1013.2 |
| 20260507132604 | 11 | 5 | 3.2 | 9.7 | 0.00 | 0.00 | 0.00 | 70 | 1013.2 |
| 20260507132104 | 12 | 4 | 8.0 | 9.7 | 0.00 | 0.00 | 0.00 | 69 | 1013.2 |
| 20260507131604 | 12 | 4 | 6.4 | 9.7 | 0.00 | 0.00 | 0.00 | 68 | 1013.2 |
| 20260507131104 | 12 | 302 | 6.4 | 9.7 | 0.00 | 0.00 | 0.00 | 67 | 1013.2 |
| 20260507130604 | 12 | 272 | 4.8 | 8.0 | 0.00 | 0.00 | 0.00 | 66 | 1013.2 |
| 20260507130104 | 13 | 209 | 3.2 | 4.8 | 0.00 | 0.00 | 0.00 | 64 | 1013.2 |
| 20260507125104 | 13 | 202 | 0.0 | 3.2 | 0.00 | 0.00 | 0.00 | 61 | 1013.2 |
| 20260507124603 | 13 | 202 | 0.0 | 4.8 | 0.00 | 0.00 | 0.00 | 62 | 1013.2 |
| 20260507124104 | 13 | 202 | 0.0 | 4.8 | 0.00 | 0.00 | 0.00 | 61 | 1013.2 |
| 20260507123604 | 13 | 202 | 1.6 | 4.8 | 0.00 | 0.00 | 0.00 | 61 | 1013.2 |
| 20260507123104 | 13 | 200 | 4.8 | 9.7 | 0.00 | 0.00 | 0.00 | 61 | 1013.2 |
| 20260507122604 | 13 | 197 | 3.2 | 8.0 | 0.00 | 0.00 | 0.00 | 62 | 1013.3 |
| 20260507122104 | 13 | 188 | 4.8 | 9.7 | 0.00 | 0.00 | 0.00 | 62 | 1013.3 |
| 20260507121603 | 13 | 180 | 4.8 | 9.7 | 0.00 | 0.00 | 0.00 | 62 | 1013.3 |
| 20260507121104 | 13 | 177 | 4.8 | 11.3 | 0.00 | 0.00 | 0.00 | 61 | 1013.3 |
| 20260507120604 | 13 | 214 | 8.0 | 14.5 | 0.00 | 0.00 | 0.00 | 61 | 1013.3 |
| 20260507120104 | 13 | 175 | 11.3 | 19.3 | 0.00 | 0.00 | 0.00 | 62 | 1013.4 |
| 20260507114604 | 13 | 172 | 12.9 | 22.5 | 0.00 | 0.00 | 0.00 | 65 | 1013.3 |
| 20260507114105 | 13 | 180 | 12.9 | 24.1 | 0.00 | 0.00 | 0.00 | 63 | 1013.3 |
| 20260507113603 | 12 | 184 | 11.3 | 20.9 | 0.00 | 0.00 | 0.00 | 64 | 1013.3 |
| 20260507113104 | 12 | 163 | 16.1 | 25.7 | 0.00 | 0.00 | 0.00 | 64 | 1013.3 |
| 20260507112604 | 12 | 188 | 14.5 | 27.4 | 0.00 | 0.00 | 0.00 | 65 | 1013.3 |
| 20260507112104 | 12 | 176 | 16.1 | 22.5 | 0.00 | 0.00 | 0.00 | 65 | 1013.3 |
| 20260507111604 | 12 | 179 | 11.3 | 19.3 | 0.00 | 0.00 | 0.00 | 66 | 1013.4 |
| 20260507111103 | 12 | 180 | 12.9 | 19.3 | 0.00 | 0.00 | 0.00 | 67 | 1013.4 |
| 20260507110604 | 12 | 175 | 14.5 | 20.9 | 0.00 | 0.00 | 0.00 | 68 | 1013.4 |
| 20260507110104 | 12 | 165 | 9.7 | 20.9 | 0.00 | 0.00 | 0.00 | 68 | 1013.4 |
| 20260507105603 | 12 | 193 | 9.7 | 19.3 | 0.00 | 0.00 | 0.00 | 69 | 1013.5 |
| 20260507105104 | 12 | 181 | 9.7 | 16.1 | 0.00 | 0.00 | 0.00 | 70 | 1013.6 |
| 20260507104604 | 12 | 167 | 9.7 | 19.3 | 0.00 | 0.00 | 0.00 | 70 | 1013.6 |
| 20260507104103 | 12 | 183 | 8.0 | 19.3 | 0.00 | 0.00 | 0.00 | 70 | 1013.6 |
| 20260507103604 | 12 | 196 | 11.3 | 20.9 | 0.00 | 0.00 | 0.00 | 70 | 1013.6 |
| 20260507103104 | 12 | 206 | 9.7 | 16.1 | 0.00 | 0.00 | 0.00 | 70 | 1013.6 |
| 20260507101603 | 11 | 162 | 9.7 | 16.1 | 0.00 | 0.00 | 0.00 | 71 | 1013.6 |
| 20260507101104 | 11 | 184 | 11.3 | 20.9 | 0.00 | 0.00 | 0.00 | 71 | 1013.7 |
| 20260507100604 | 11 | 168 | 8.0 | 14.5 | 0.00 | 0.00 | 0.00 | 72 | 1013.7 |
| 20260507100104 | 11 | 180 | 4.8 | 12.9 | 0.00 | 0.00 | 0.00 | 72 | 1013.7 |
| 20260507095604 | 11 | 207 | 11.3 | 16.1 | 0.00 | 0.00 | 0.00 | 72 | 1013.7 |